User: anonymous   Login
Location: St. Louis
(38.6270°N, 90.1994°W)
Time: 07:45:29
(UTC-06:00)
Language:

COSMOS 2251 DEB - Orbit

View from above orbital plane
View from above orbital plane
View from above satellite
View from above satellite

Ground track
Ground track

The orbit data is extracted from the following two-line orbital elements,

1 34853U 93036ABX 23186.65529325  .05161460  48713-1  10973-1 0  9999
2 34853  74.0255 324.7847 0022662 299.1878  60.7095 16.02727632764364
Epoch (UTC): 05 July 2023 15:43:37
Eccentricity: 0.0022662
inclination: 74.0255°
perigee height: 252 km
apogee height: 282 km
right ascension of ascending node: 324.7847°
argument of perigee: 299.1878°
revolutions per day: 16.02727632
mean anomaly at epoch: 60.7095°
orbit number at epoch: 76436

The dashed part of the orbit path shows where the satellite is in the earth's shadow,  

DLR